Location: Krakow
(50.0830°N, 19.9170°E)
Time: 06:13:44
(UTC+01:00)

SR - Pass Details

Date: 08 February 2023
Orbit: 582 x 867 km, 66.7° (Epoch: 20 March)

Event Time Altitude Azimuth Distance (km) Brightness Sun altitude
Rises 13:07:57 0° 208° (SSW) 3,196 ? 23.0°
Reaches altitude 10° 13:10:25 10° 206° (SSW) 2,229 ? 22.8°
Maximum altitude 13:15:27 70° 123° (ESE) 733 ? 22.5°
Drops below altitude 10° 13:20:05 10° 40° (NE) 2,062 ? 22.3°
Sets 13:22:18 0° 39° (NE) 2,938 ? 22.1°
